CAPE
3115 3126 3029 2972 2719 2412 2254 2234 2293 2381 2445 2269 2072 1763 1516 1267 742 761 972 890 931 1026 1077 1122 1166 965 579 526 446 495 757 514 757 864 944 928 1050 826 744 1060 881 646 596 418 708 1138 1176 1147 1182 1174 1330 1188 892 725 650 732 592 392 345 230 157 159 102 60 18 8 29 64 21 14 12 22 25 28 30 64 78 94 67 94 105 116 91 53 3
3183 3130 3014 2754 2534 2345 2106 2063 2091 2190 2263 2137 1972 1849 1546 1364 702 782 733 856 936 898 1155 1058 1081 976 754 904 934 783 908 1001 706 966 1034 1004 926 938 862 1149 1128 834 690 786 734 1118 1446 1426 1198 1129 1245 1357 1064 968 788 646 525 456 365 305 232 175 146 103 50 33 27 110 94 27 11 20 16 62 77 108 185 164 143 181 194 163 178 76 1
3144 3190 2971 2734 2510 2237 1880 1850 1898 2065 2114 2037 1962 1900 1632 1475 618 566 471 481 661 715 882 794 998 989 817 915 1102 1023 1112 1033 1055 1144 1044 1004 730 510 507 756 856 682 577 722 697 1109 1470 1328 934 866 1206 1298 1240 1106 886 891 697 571 561 391 390 342 238 156 78 48 37 28 93 42 33 15 71 126 210 237 248 267 274 322 329 313 266 148 40
3014 3095 2936 2658 2433 2188 1895 1768 1674 1996 2141 1976 2004 1992 1850 1496 482 532 502 372 398 548 674 803 889 939 845 946 1041 1014 1148 1194 1278 1164 1188 1059 899 742 872 1189 1076 884 783 698 514 963 834 849 674 748 1136 1264 1108 1085 984 930 822 744 690 662 572 592 505 394 223 89 53 25 22 136 91 54 93 160 200 291 358 408 452 449 435 419 348 286 132
2906 2894 2762 2504 2239 2074 1756 1546 1559 1878 1830 1754 1859 2022 1925 1668 864 231 350 337 418 487 542 705 792 821 758 891 1026 1162 1197 1316 1298 1082 1040 1068 1116 945 1076 1288 1211 1136 1007 1024 1024 920 936 850 722 994 1278 1136 1064 1096 977 1047 945 795 687 757 683 583 472 346 331 230 122 42 42 58 100 104 110 117 131 116 223 350 321 334 386 380 306 320 170
2884 2791 2662 2453 2182 1848 1552 1407 1285 1456 1511 1526 1764 1986 1912 1777 1072 136 236 256 295 261 422 380 521 726 745 938 1166 1312 1407 1355 1257 1150 870 986 1250 1102 1097 1230 1170 1177 1128 1161 1171 1118 992 979 1092 1217 1284 1099 957 950 1162 1108 1097 1027 892 872 806 746 681 578 360 307 187 59 58 40 83 172 126 125 149 145 136 121 164 237 326 348 331 268 229
3051 2776 2590 2239 2142 1842 1568 1250 1038 920 931 1084 1404 1675 1740 1854 1512 60 67 52 40 62 205 400 428 585 903 1074 1121 1256 1233 1146 1096 1135 1121 1352 1408 1200 1080 1130 1099 1095 1210 1112 999 1108 1086 1076 1258 1357 1300 1221 1054 940 1033 1228 1282 1166 1126 1037 909 826 648 329 311 344 246 121 113 84 84 124 222 218 184 212 232 186 220 244 276 250 197 203 128
3155 2944 2655 2226 2110 1878 1581 1366 1180 791 678 722 1212 1542 1751 1628 1537 646 73 27 20 42 78 210 313 412 758 819 944 942 1005 1020 1072 1136 1277 1351 1314 1302 1181 1090 1047 1102 1207 1198 1113 952 1031 1063 796 1044 1286 1238 1202 1195 1258 1191 1180 1129 1115 974 777 716 465 286 231 351 252 171 155 96 96 157 234 290 229 258 346 382 402 268 173 236 221 165 128
3284 3038 2632 2344 2218 2053 1890 1722 1458 1090 679 754 967 1192 1522 1729 1623 494 146 68 10 8 3 30 156 370 524 566 667 742 782 883 979 1034 1102 1302 1410 1292 1232 1166 1106 1090 1209 1148 1148 1100 1086 1101 994 906 1107 1244 958 719 700 665 806 847 998 996 966 921 773 520 244 278 293 186 161 179 169 240 306 302 282 326 367 388 300 269 228 223 188 175 154
3408 3121 2756 2437 2357 2285 2175 2004 1799 1518 1201 194 336 592 1124 1710 1848 1053 219 39 4 0 0 0 94 237 396 474 537 609 630 724 565 222 324 1099 1498 1393 1227 1144 1116 1103 1208 1204 1109 1108 1083 1030 973 783 672 497 296 136 86 55 22 234 587 830 938 1223 1098 763 537 514 484 432 204 197 192 199 270 303 309 343 328 361 300 262 224 230 199 193 203
3394 3189 2832 2486 2446 2390 2312 2210 2029 1897 1756 1332 693 334 362 1426 1372 1086 202 16 1 10 112 77 44 61 102 231 350 412 518 528 237 223 309 302 598 1188 1166 1185 1128 1184 1123 1158 1117 1022 1273 1214 1079 1029 659 356 310 102 78 22 2 0 0 5 94 497 887 811 858 752 636 644 441 343 301 268 360 428 379 265 299 308 287 153 230 234 174 148 135
3249 3339 3115 2570 2472 2428 2352 2279 2212 2061 1889 1815 950 813 653 604 614 1134 655 143 44 50 47 58 54 83 147 262 264 236 286 241 176 334 374 293 131 560 1012 1022 1079 1067 1079 1114 1230 1114 1063 778 709 802 716 645 628 690 484 146 49 40 53 61 66 79 87 176 276 332 452 464 527 596 386 368 395 466 354 315 361 343 289 416 490 349 94 124 98
3396 3466 3276 2892 2504 2434 2369 2321 2363 2329 2327 1708 785 602 622 554 489 511 758 206 230 79 110 62 56 94 142 188 161 163 216 214 348 446 340 194 0 57 562 1042 1069 1140 1165 1249 1211 916 272 398 336 246 626 294 81 348 886 1020 713 226 79 8 4 4 26 54 70 93 372 364 544 452 485 471 397 353 416 500 490 411 324 333 359 183 114 47 55
3410 3460 3384 2768 2486 2436 2404 2393 2366 2293 2245 2234 1813 1442 1135 951 763 708 595 342 255 248 220 175 129 118 136 134 144 164 214 235 438 500 290 133 126 125 351 770 948 1061 1202 1214 1054 564 396 333 285 266 347 654 872 892 844 703 620 592 581 605 560 502 230 112 83 78 83 107 180 100 181 227 281 353 401 371 262 308 191 111 86 25 20 11 5
3320 3325 3109 2692 2510 2464 2445 2383 2345 2272 2202 2121 2067 1756 1436 846 872 791 464 246 227 276 28 45 89 84 81 68 87 180 306 217 421 647 638 282 174 190 300 690 970 1170 1163 1017 685 516 338 252 410 357 392 624 735 413 208 179 215 204 261 236 260 299 252 267 221 280 154 85 100 180 170 248 286 241 200 84 44 12 9 11 8 7 6 8 8
3233 3124 2950 2588 2459 2396 2359 2314 2250 2214 2152 2056 1983 1914 1311 1266 893 787 301 44 316 266 57 56 59 130 85 166 242 259 293 339 469 676 742 497 283 277 508 926 1082 1016 885 702 411 306 203 222 252 339 476 752 126 0 0 4 17 77 126 140 160 118 89 54 24 27 25 30 27 6 3 1 0 0 0 0 2 4 6 7 6 8 6 6 6
3144 3021 2753 2587 2298 2255 2176 2124 2084 2012 1950 1884 1778 1655 1524 942 701 644 608 533 529 325 234 87 39 208 348 388 348 296 297 308 378 528 661 618 470 429 685 802 821 745 618 522 329 250 163 196 240 375 626 304 23 0 0 0 36 51 39 34 33 37 34 48 37 1 0 0 0 0 0 0 0 0 0 0 0 5 6 5 5 0 7 8 6
3115 2988 2783 2609 2182 2074 2035 1952 1908 1817 1736 1644 1491 1400 1319 1209 1103 660 506 317 314 248 44 26 360 348 414 490 384 366 496 538 493 568 589 633 580 611 805 832 865 751 570 358 232 190 134 95 166 303 192 124 0 0 0 0 10 10 10 22 17 16 12 20 15 12 0 0 0 0 0 0 0 0 0 0 0 0 14 4 1 6 8 8 6
3036 2856 2740 2519 2174 1924 1853 1782 1697 1604 1487 1326 1183 995 853 768 696 554 333 284 144 6 8 7 167 333 376 402 458 439 475 429 422 501 562 584 494 418 540 604 605 666 350 328 188 161 239 50 8 38 63 0 0 0 0 0 1 10 10 11 12 11 14 10 4 2 0 0 1 3 2 1 16 5 2 0 0 0 1 2 2 4 4 4 3
2671 2546 2494 2258 1997 1710 1601 1528 1427 1330 1227 1104 1077 957 812 740 547 34 0 0 311 582 500 470 429 554 436 413 468 588 591 502 444 518 538 500 457 430 456 278 476 726 660 367 310 198 122 72 0 0 0 0 0 0 0 0 0 3 9 4 6 10 4 1 1 1 2 2 3 3 3 2 1 0 0 0 0 1 2 2 0 0 3 4 5
2158 2248 2069 1846 1789 1573 1329 1250 1180 1102 1019 954 890 841 779 627 298 0 3 125 269 397 576 746 729 690 474 536 585 527 460 376 206 222 386 424 484 477 437 319 480 838 744 248 248 238 128 42 14 0 0 0 0 0 0 0 0 1 4 4 2 0 0 0 0 1 4 4 3 2 1 1 0 0 0 0 0 0 0 0 0 0 1 1 4
1837 1862 1787 1642 1571 1254 1103 1035 991 966 929 886 824 758 718 587 216 0 22 68 107 233 836 967 675 304 363 407 327 451 480 189 140 213 224 332 390 354 172 316 387 404 314 306 177 100 66 44 20 0 0 0 0 0 0 0 0 2 1 0 0 0 0 0 1 3 3 2 2 2 0 0 0 0 0 0 0 0 0 0 0 0 0 0 6
1678 1679 1611 1513 1286 979 934 896 878 854 822 803 778 722 670 468 0 52 24 64 271 679 1159 708 448 479 386 474 505 467 390 320 352 362 288 261 101 18 78 48 0 188 139 189 149 66 28 17 2 0 0 0 0 0 0 1 0 1 0 0 0 0 0 0 2 2 2 2 3 2 1 0 0 0 0 0 0 0 0 0 0 0 0 0 1
1596 1529 1296 1158 892 868 828 798 788 763 694 682 625 660 570 366 235 207 188 636 916 1238 1110 761 494 392 265 258 216 203 298 413 458 388 321 125 52 10 0 0 0 38 36 53 26 4 8 11 0 0 0 0 0 0 0 1 0 0 0 0 0 0 0 0 0 2 2 2 3 2 0 0 0 0 0 0 0 0 0 0 0 0 0 0 0
1416 1272 1073 977 824 810 778 759 741 624 568 619 646 616 444 238 124 240 820 1235 1318 1081 663 628 208 192 126 190 229 217 309 357 333 97 29 56 0 0 0 0 0 0 4 3 0 1 0 0 0 0 0 0 0 0 2 0 0 0 0 0 0 0 0 0 0 0 0 0 0 0 0 0 0 0 0 0 0 0 0 0 0 0 0 0 1
1216 1138 1018 882 776 762 756 737 654 562 490 464 338 9 1 9 38 344 916 1034 902 786 660 146 143 136 151 171 160 278 307 120 8 15 59 0 0 0 0 0 0 0 0 0 0 0 0 0 0 0 0 0 0 2 4 3 0 0 0 0 0 0 0 0 0 0 0 0 0 0 0 0 0 0 0 0 1 0 0 0 0 0 0 0 1
1022 861 858 699 690 711 715 676 556 488 408 47 10 0 0 142 400 1041 1084 972 1137 926 300 83 81 85 112 222 419 288 182 17 35 61 0 0 0 0 0 0 0 0 0 0 0 0 0 0 0 0 1 1 1 0 0 0 0 0 0 0 0 0 0 0 0 0 0 0 0 0 0 0 0 0 0 0 0 0 0 1 0 0 0 1 2
886 848 727 622 612 644 630 650 530 456 504 475 460 538 827 812 1038 1168 1128 1283 1041 583 202 225 181 208 268 381 409 241 96 87 63 11 0 0 0 0 0 0 0 0 0 0 0 0 0 0 2 3 2 1 0 0 0 0 0 0 0 0 0 0 0 0 0 0 0 0 0 0 0 0 0 0 0 0 0 0 0 0 0 0 1 2 1
766 736 649 571 608 550 520 536 474 622 565 599 140 488 499 715 959 952 341 243 138 404 567 483 607 529 608 632 451 298 322 332 259 0 0 0 0 0 0 0 0 0 0 0 0 0 0 2 2 2 4 4 4 4 0 0 0 0 0 0 0 0 0 0 0 0 0 0 0 0 0 0 0 0 0 0 0 0 0 0 0 1 2 2 2
916 911 835 665 602 575 548 508 488 434 461 178 0 91 196 314 315 225 132 46 0 36 2 262 225 334 244 308 188 401 622 334 0 0 0 0 0 0 0 0 0 0 0 0 0 0 0 1 2 2 2 2 0 2 0 0 0 0 0 0 0 0 0 0 0 0 0 0 0 0 0 0 0 0 0 0 0 0 0 0 0 0 1 1 2
933 898 765 802 689 702 722 731 463 534 394 32 0 252 0 0 7 23 64 47 0 0 0 0 0 0 99 20 0 0 0 0 0 0 0 0 0 0 0 0 0 0 0 0 0 0 0 2 1 0 2 0 0 0 0 0 0 0 0 0 0 0 0 0 0 0 0 0 0 0 0 0 0 0 0 0 0 0 0 0 0 0 0 0 1
1011 891 812 806 531 641 543 487 428 385 304 110 0 0 0 0 0 0 0 0 12 0 0 0 0 0 0 0 0 0 0 0 0 0 0 0 0 0 0 0 0 0 0 0 0 1 0 1 1 1 0 0 0 0 0 0 0 0 0 0 0 0 0 0 0 0 0 0 0 0 0 0 0 0 0 0 0 0 0 0 0 0 0 0 0
979 974 964 860 713 600 530 460 322 215 116 33 0 0 2 13 16 0 0 0 0 0 0 0 0 0 0 0 0 0 0 0 0 0 0 0 0 0 0 0 0 0 0 0 0 0 0 0 0 0 0 0 0 0 0 0 0 0 0 0 0 0 0 0 0 0 0 0 0 0 0 0 0 0 0 0 0 0 0 0 0 0 1 2 0
966 866 702 626 657 570 436 439 289 192 47 10 2 4 31 92 173 35 1 0 0 0 0 0 0 0 0 0 0 0 0 0 0 0 0 0 0 0 0 0 0 0 0 0 0 0 0 0 0 0 0 0 0 0 0 0 0 0 0 0 0 0 0 0 0 0 0 0 0 0 0 0 0 0 0 0 0 0 0 0 0 0 6 8 1
493 189 171 378 564 476 250 309 142 47 1 0 2 6 33 100 56 32 26 11 5 0 0 0 0 0 0 0 0 0 0 0 0 0 0 0 0 0 0 0 0 0 0 0 0 0 0 0 1 0 0 0 0 0 0 0 0 0 0 0 0 0 0 0 0 0 0 0 0 0 0 0 0 0 0 0 0 0 0 0 0 0 0 2 2
84 164 92 82 250 316 209 271 155 106 50 33 117 116 122 62 43 30 24 27 18 0 0 0 0 0 0 0 0 0 0 0 0 0 0 0 0 0 0 0 0 0 0 0 0 0 0 3 2 0 0 0 0 0 0 0 0 0 0 0 0 0 0 0 0 0 0 0 0 0 0 0 0 0 0 0 0 0 0 0 0 0 1 9 10
0 181 444 398 152 294 438 405 271 221 29 96 68 129 87 97 81 66 108 205 197 23 0 0 0 0 0 0 0 0 0 0 0 0 0 0 0 0 0 0 0 0 0 0 0 0 2 1 0 0 0 0 0 0 0 0 0 0 0 0 0 0 0 0 0 0 0 0 0 0 0 0 0 0 0 0 0 0 0 0 0 0 10 15 11
4 77 339 807 730 479 700 487 204 6 26 54 145 118 150 204 250 255 242 196 159 148 0 0 0 0 0 0 0 0 0 0 0 0 0 0 0 0 0 0 0 0 0 0 0 0 0 0 0 0 0 0 0 0 0 0 0 0 0 0 0 0 0 0 0 0 0 0 0 0 0 0 0 0 0 0 0 0 0 0 0 0 3 6 5
110 101 30 222 408 472 415 348 111 59 107 102 167 159 166 132 141 116 75 86 39 17 0 0 0 0 0 0 0 0 0 0 0 0 0 0 0 0 0 0 0 0 0 0 0 0 0 0 0 0 0 0 0 0 0 0 0 0 0 0 0 0 0 0 0 0 0 0 0 0 0 0 0 0 0 0 0 0 0 0 0 0 0 0 1
458 324 27 20 208 194 528 509 317 297 249 207 142 165 214 171 150 76 96 136 153 89 0 0 0 0 0 0 0 0 0 0 0 0 0 0 0 0 0 0 0 0 0 0 0 0 0 0 0 0 0 0 0 0 0 0 0 0 0 0 0 0 0 0 0 0 0 0 0 0 0 0 0 0 0 0 0 0 0 0 0 0 0 0 0
627 495 97 49 238 353 488 339 337 322 229 200 210 232 261 264 233 195 170 117 147 102 18 0 0 0 0 0 0 0 0 0 0 0 0 0 0 0 0 0 0 0 0 0 0 0 0 0 0 0 0 0 0 0 0 0 0 0 0 0 0 0 0 0 0 0 0 0 0 0 0 0 0 0 0 0 0 0 0 0 0 0 0 0 0
594 367 43 131 263 624 578 531 463 325 347 292 311 342 364 380 457 403 306 237 142 79 24 4 0 0 0 0 0 0 0 0 0 0 0 0 0 0 0 0 0 0 0 0 0 0 0 0 0 0 0 0 0 0 0 0 0 0 0 0 0 0 0 0 0 0 0 0 0 0 0 0 0 0 0 0 0 0 0 0 0 0 0 0 0
556 475 586 823 950 870 708 519 491 438 392 469 506 424 443 468 434 191 131 75 60 41 28 1 0 0 0 0 0 0 0 0 0 0 0 0 0 0 0 0 0 0 0 0 0 0 0 0 0 0 0 0 0 0 0 0 0 0 0 0 0 0 0 0 0 0 0 0 0 0 0 0 0 0 0 0 0 0 0 0 0 0 0 0 0
315 274 297 324 299 226 174 65 194 314 394 372 392 376 295 284 229 126 112 115 65 28 23 2 0 0 0 0 0 0 0 0 0 0 0 0 0 0 0 0 0 0 0 0 0 0 0 0 0 0 0 0 0 0 0 0 0 0 0 0 0 0 0 0 0 0 0 0 0 0 0 0 0 0 0 0 0 0 0 0 0 0 0 0 0
382 402 227 29 4 2 2 204 360 257 222 239 256 134 68 69 92 70 16 35 50 31 4 2 0 0 0 0 0 0 0 0 0 0 0 0 0 0 0 0 1 0 0 0 0 0 0 0 0 0 0 0 0 0 0 0 0 0 0 0 0 0 0 0 0 0 0 0 0 0 0 0 0 0 0 0 0 0 0 0 0 0 0 0 0
254 204 110 86 83 84 144 139 169 150 97 35 32 38 20 0 1 2 2 0 1 2 1 0 0 2 1 0 3 3 1 0 2 5 4 4 6 4 1 0 0 0 0 0 0 0 0 0 0 0 0 0 0 0 0 0 0 0 0 0 0 0 0 0 0 0 0 0 0 0 0 0 0 0 0 0 0 0 0 0 0 0 0 0 0
4 3 17 17 7 52 128 81 60 22 12 7 11 8 13 30 20 4 0 0 0 0 0 0 1 1 3 2 1 0 1 0 3 7 4 4 3 2 0 0 0 0 0 0 0 0 0 0 0 0 0 0 0 0 0 0 0 0 0 0 0 0 0 0 0 0 0 0 0 0 0 0 0 0 0 0 0 0 0 0 0 0 0 0 0
18 11 16 64 99 90 70 35 6 5 1 0 2 0 0 2 4 4 11 0 0 0 0 0 0 0 0 0 0 0 0 0 0 2 3 1 0 0 0 0 0 0 0 0 0 0 0 0 0 0 0 0 0 0 0 0 0 0 0 0 0 0 0 0 0 0 0 0 0 0 0 0 0 0 0 0 0 0 0 0 0 0 0 0 0
4 4 67 58 42 34 12 1 0 0 0 0 0 0 0 0 0 0 1 2 2 2 3 2 2 1 1 2 1 1 2 3 3 0 0 0 0 0 0 0 0 0 0 0 0 0 0 0 0 0 0 0 0 0 0 0 0 0 0 0 0 0 0 0 0 0 0 0 0 0 0 0 0 0 0 0 0 0 0 0 0 0 0 0 0
2 3 5 2 5 0 4 0 0 0 0 0 0 0 0 0 1 2 2 4 6 12 13 14 12 9 7 7 5 6 7 9 6 1 0 0 0 0 0 0 0 0 0 0 0 0 0 0 0 0 0 0 0 0 0 0 0 0 0 0 0 0 0 0 0 0 0 0 0 0 0 0 0 0 0 0 0 0 0 0 0 0 0 0 0
0 0 0 0 0 0 0 0 0 0 0 0 0 0 0 0 0 0 0 0 2 15 24 25 28 28 25 17 15 17 16 14 12 6 2 0 0 0 0 0 0 0 0 0 0 0 0 0 0 0 0 0 0 0 0 0 0 0 0 0 0 0 0 0 0 0 0 0 0 0 0 0 0 0 0 0 0 0 0 0 0 0 0 0 0
Wind_Speed
17 18 19 20 23 25 25 26 28 29 30 30 30 29 28 30 33 34 34 33 34 32 30 30 30 30 31 32 32 30 28 26 27 27 28 28 29 28 28 29 27 26 26 24 25 24 23 24 26 27 29 29 28 29 32 34 34 35 37 38 37 39 41 nan nan nan nan nan nan nan nan nan nan nan nan nan nan nan nan nan 36 37 nan nan nan
16 19 21 23 25 26 27 28 30 31 32 31 29 30 31 31 34 37 37 37 37 34 34 34 32 31 32 33 33 32 30 27 27 28 27 28 28 29 29 29 28 27 26 25 24 23 24 25 24 24 27 29 30 32 33 35 36 37 38 39 38 38 41 40 nan nan nan 31 nan nan nan nan nan nan nan 35 35 37 35 35 37 36 37 nan nan
18 20 22 23 26 27 29 31 32 33 33 31 32 33 33 32 34 36 38 41 39 36 39 38 34 32 32 32 33 33 33 31 29 30 29 27 27 28 28 28 28 27 26 25 22 22 23 24 23 24 29 32 34 34 35 37 39 40 40 41 40 39 40 41 nan nan nan nan nan nan nan nan nan 38 37 37 37 37 34 34 36 37 37 36 nan
18 21 23 25 28 30 33 34 36 36 33 33 35 36 34 33 34 35 38 42 43 42 44 41 36 34 33 33 33 32 34 34 33 32 29 28 28 28 28 29 29 28 26 23 21 22 22 23 25 27 31 33 35 37 39 41 42 43 42 42 42 41 41 42 41 nan nan nan nan 35 nan nan nan 37 39 39 38 37 36 35 36 36 35 35 35
18 22 26 29 31 33 36 40 43 38 36 37 40 40 38 36 35 33 36 40 43 45 46 43 40 39 37 36 34 33 34 35 34 32 30 28 28 27 28 29 29 28 26 24 22 21 22 25 27 30 32 34 36 38 41 43 43 43 43 43 42 42 42 42 40 39 37 nan nan nan nan 38 38 38 39 39 38 37 35 33 34 34 33 34 35
22 25 28 30 32 36 41 45 45 42 41 42 44 44 42 42 41 36 36 39 42 45 47 45 45 45 42 39 36 35 35 35 35 32 29 28 28 26 27 27 27 27 25 24 24 24 26 28 30 32 33 35 36 38 41 42 43 43 42 42 42 42 41 40 39 38 38 nan nan nan nan 37 37 39 39 40 38 36 36 33 32 33 31 32 35
25 27 30 32 33 40 46 46 45 42 41 39 40 43 44 44 45 nan nan nan nan nan 45 46 47 48 45 44 42 40 37 37 35 33 29 29 27 26 26 26 26 26 25 25 26 27 28 30 32 33 35 38 39 40 41 42 43 42 42 41 41 42 40 37 38 38 38 38 38 nan nan 36 37 37 39 39 37 36 35 32 30 30 31 32 33
26 28 29 31 36 43 44 44 44 44 42 40 38 39 41 41 41 41 nan nan nan nan nan 47 48 47 44 45 46 43 39 37 35 32 30 28 28 27 27 26 26 26 26 26 26 27 29 30 31 33 37 40 42 42 42 42 43 41 42 42 41 40 37 35 36 38 38 38 39 nan nan 36 37 37 37 38 35 34 35 31 26 27 28 29 31
25 26 29 33 37 39 38 39 40 44 50 50 41 40 43 40 39 41 43 nan nan nan nan nan 48 46 44 47 48 44 39 36 35 32 29 28 29 28 28 28 28 26 25 25 26 28 29 31 32 35 39 42 42 42 42 42 42 41 41 41 40 39 38 37 36 37 38 39 37 37 36 36 35 35 35 35 32 28 28 27 23 23 25 25 26
24 26 30 34 36 38 40 39 40 45 55 60 50 46 43 40 40 44 48 nan nan nan nan nan nan 48 48 49 50 47 41 37 30 26 28 30 31 32 31 31 29 26 25 25 27 30 31 32 34 38 40 41 41 42 nan nan nan 41 40 40 39 38 37 36 37 39 39 39 38 36 34 33 32 32 31 29 26 24 21 21 19 21 22 22 24
26 29 33 36 38 41 40 41 43 47 54 59 63 54 44 39 43 46 49 nan nan nan 50 nan nan nan 52 51 52 51 46 35 24 27 30 30 32 32 32 31 29 27 25 26 27 29 31 35 36 39 40 40 41 43 nan nan nan nan nan nan nan 36 35 35 37 38 39 39 38 37 34 30 29 29 26 23 22 21 20 20 19 20 20 20 18
29 32 35 39 42 44 42 43 45 49 57 60 62 58 51 46 46 47 49 50 nan nan nan nan nan nan 56 54 49 45 42 32 27 30 33 32 32 32 32 31 29 27 25 25 27 30 34 36 37 37 37 39 40 42 44 44 nan nan nan nan nan nan nan 35 36 38 38 37 36 35 32 30 28 27 22 20 20 21 20 21 21 20 nan 18 nan
32 34 37 40 43 44 45 45 48 53 61 65 62 55 53 52 49 48 50 49 50 nan 48 nan nan nan 53 50 43 41 38 32 31 31 32 31 nan nan 31 30 27 25 25 25 27 34 37 36 35 34 36 43 nan 41 40 41 45 46 nan nan nan nan nan nan nan nan 37 37 35 32 31 29 25 23 22 21 21 19 19 19 19 16 15 nan nan
35 36 39 42 43 45 47 49 53 61 66 66 64 59 54 51 50 53 54 51 50 51 50 52 54 51 44 42 39 33 29 28 31 33 32 29 27 31 31 29 25 23 24 26 30 32 37 37 35 35 37 40 41 41 40 41 40 40 41 41 40 41 42 43 nan nan nan 38 34 30 29 27 23 20 19 19 19 19 19 18 nan nan nan nan nan
37 39 41 43 45 47 49 52 54 57 61 62 62 62 60 57 56 56 55 55 57 54 nan nan nan nan nan nan nan 27 26 28 32 35 31 27 27 31 31 29 24 22 24 27 29 31 33 33 34 35 37 38 40 42 41 41 40 40 40 39 39 38 36 35 37 40 41 nan nan 30 27 26 22 20 19 nan nan nan nan nan nan nan nan nan nan
40 41 44 46 48 49 50 52 54 57 60 60 61 61 61 62 60 57 56 nan 54 49 nan nan nan 35 nan 41 35 27 27 28 32 33 32 28 28 29 29 26 22 22 25 28 29 31 33 34 34 35 37 37 46 nan nan nan nan nan 39 38 37 36 nan nan nan nan nan nan nan nan nan nan nan nan nan nan nan nan nan nan nan nan nan nan nan
42 44 46 49 50 51 52 54 56 58 60 60 60 60 62 62 61 58 58 54 47 41 41 nan nan 33 37 35 31 26 27 29 31 34 32 28 29 28 28 23 21 24 27 30 32 33 35 37 37 36 37 39 nan nan nan nan nan nan nan nan nan nan nan nan nan nan nan nan nan nan nan nan nan nan nan nan nan nan nan nan nan nan nan nan nan
44 46 47 50 52 53 54 57 59 60 59 59 58 59 61 60 59 56 53 49 44 44 nan nan 37 36 34 32 32 30 28 30 35 34 30 29 29 29 25 21 22 26 30 33 34 35 36 nan 37 37 38 41 nan nan nan nan nan nan nan nan nan nan nan nan nan nan nan nan nan nan nan nan nan nan nan nan nan nan nan nan nan nan nan nan nan
46 47 48 51 53 54 55 58 60 60 57 54 55 57 58 57 53 49 47 46 47 nan nan nan 37 36 35 35 39 34 29 35 41 35 31 31 30 26 22 23 26 29 34 36 37 37 40 nan nan nan nan nan nan nan nan nan nan nan nan nan nan nan nan nan nan nan nan nan nan nan nan nan nan nan nan nan nan nan nan nan nan nan nan nan nan
47 49 50 52 53 54 56 59 59 58 59 58 57 59 61 60 54 nan nan nan 46 45 43 40 38 38 38 39 38 30 27 34 34 30 31 30 28 24 26 29 33 36 39 41 41 42 43 nan nan nan nan nan nan nan nan nan nan nan nan nan nan nan nan nan nan nan nan nan nan nan nan nan nan nan nan nan nan nan nan nan nan nan nan nan nan
49 51 52 53 54 55 57 58 59 60 59 56 55 56 57 55 48 nan nan 42 43 43 43 40 39 39 40 39 33 27 28 32 29 20 23 30 32 30 30 35 39 42 44 45 43 43 45 nan nan nan nan nan nan nan nan nan nan nan nan nan nan nan nan nan nan nan nan nan nan nan nan nan nan nan nan nan nan nan nan nan nan nan nan nan nan
52 53 54 55 56 57 57 57 59 59 58 55 56 55 52 51 50 nan nan nan 43 42 41 40 40 39 37 34 28 26 29 32 26 21 26 33 35 37 38 42 45 46 46 45 44 nan nan nan nan nan nan nan nan nan nan nan nan nan nan nan nan nan nan nan nan nan nan nan nan nan nan nan nan nan nan nan nan nan nan nan nan nan nan nan nan
55 55 56 56 56 57 58 59 58 57 55 54 55 53 51 49 nan nan nan nan 40 39 40 42 42 40 38 35 32 31 31 31 29 27 32 33 36 nan nan nan nan 46 46 46 45 nan nan nan nan nan nan nan nan nan nan nan nan nan nan nan nan nan nan nan nan nan nan nan nan nan nan nan nan nan nan nan nan nan nan nan nan nan nan nan nan
57 57 56 56 56 57 57 57 56 56 56 55 54 52 49 47 45 43 41 38 36 36 39 40 40 38 37 35 34 33 31 26 32 34 37 39 nan nan nan nan nan nan nan nan nan nan nan nan nan nan nan nan nan nan nan nan nan nan nan nan nan nan nan nan nan nan nan nan nan nan nan nan nan nan nan nan nan nan nan nan nan nan nan nan nan
58 58 56 56 57 57 56 54 54 53 53 52 50 48 47 44 43 42 40 37 37 37 38 38 37 37 36 35 33 32 31 29 32 nan nan nan nan nan nan nan nan nan nan nan nan nan nan nan nan nan nan nan nan nan nan nan nan nan nan nan nan nan nan nan nan nan nan nan nan nan nan nan nan nan nan nan nan nan nan nan nan nan nan nan nan
57 56 55 55 56 55 52 50 48 48 48 46 44 nan nan nan nan 41 40 40 40 41 40 39 37 35 33 32 32 32 34 37 nan nan nan nan nan nan nan nan nan nan nan nan nan nan nan nan nan nan nan nan nan nan nan nan nan nan nan nan nan nan nan nan nan nan nan nan nan nan nan nan nan nan nan nan nan nan nan nan nan nan nan nan nan
53 52 52 52 50 46 45 43 42 43 42 nan nan nan nan 39 40 41 41 41 42 42 41 nan nan nan 28 28 31 35 39 nan nan nan nan nan nan nan nan nan nan nan nan nan nan nan nan nan nan nan nan nan nan nan nan nan nan nan nan nan nan nan nan nan nan nan nan nan nan nan nan nan nan nan nan nan nan nan nan nan nan nan nan nan nan
47 47 46 45 42 40 39 42 42 42 41 40 39 39 38 38 40 41 42 42 41 41 39 38 37 34 29 30 35 39 nan nan nan nan nan nan nan nan nan nan nan nan nan nan nan nan nan nan nan nan nan nan nan nan nan nan nan nan nan nan nan nan nan nan nan nan nan nan nan nan nan nan nan nan nan nan nan nan nan nan nan nan nan nan nan
39 40 39 39 39 39 39 41 41 43 44 43 43 41 38 37 39 41 42 39 38 38 38 38 36 35 34 37 40 42 43 43 42 nan nan nan nan nan nan nan nan nan nan nan nan nan nan nan nan nan nan nan nan nan nan nan nan nan nan nan nan nan nan nan nan nan nan nan nan nan nan nan nan nan nan nan nan nan nan nan nan nan nan nan nan
37 37 38 39 40 41 40 41 42 44 46 47 nan nan 46 46 42 41 44 nan nan nan nan 37 36 37 39 41 39 39 40 41 nan nan nan nan nan nan nan nan nan nan nan nan nan nan nan nan nan nan nan nan nan nan nan nan nan nan nan nan nan nan nan nan nan nan nan nan nan nan nan nan nan nan nan nan nan nan nan nan nan nan nan nan nan
38 40 40 39 40 40 40 41 43 44 46 nan nan 46 nan nan nan nan nan nan nan nan nan nan nan nan nan nan nan nan nan nan nan nan nan nan nan nan nan nan nan nan nan nan nan nan nan nan nan nan nan nan nan nan nan nan nan nan nan nan nan nan nan nan nan nan nan nan nan nan nan nan nan nan nan nan nan nan nan nan nan nan nan nan nan
41 41 40 41 42 41 41 42 43 44 45 45 nan nan nan nan nan nan nan nan nan nan nan nan nan nan nan nan nan nan nan nan nan nan nan nan nan nan nan nan nan nan nan nan nan nan nan nan nan nan nan nan nan nan nan nan nan nan nan nan nan nan nan nan nan nan nan nan nan nan nan nan nan nan nan nan nan nan nan nan nan nan nan nan nan
42 43 43 44 44 45 45 46 46 46 45 nan nan nan nan nan nan nan nan nan nan nan nan nan nan nan nan nan nan nan nan nan nan nan nan nan nan nan nan nan nan nan nan nan nan nan nan nan nan nan nan nan nan nan nan nan nan nan nan nan nan nan nan nan nan nan nan nan nan nan nan nan nan nan nan nan nan nan nan nan nan nan nan nan nan
42 44 45 47 48 49 48 47 46 45 nan nan nan nan nan nan 47 nan nan nan nan nan nan nan nan nan nan nan nan nan nan nan nan nan nan nan nan nan nan nan nan nan nan nan nan nan nan nan nan nan nan nan nan nan nan nan nan nan nan nan nan nan nan nan nan nan nan nan nan nan nan nan nan nan nan nan nan nan nan nan nan nan nan nan nan
45 47 50 50 50 50 49 48 46 nan nan nan nan nan nan 46 nan nan nan nan nan nan nan nan nan nan nan nan nan nan nan nan nan nan nan nan nan nan nan nan nan nan nan nan nan nan nan nan nan nan nan nan nan nan nan nan nan nan nan nan nan nan nan nan nan nan nan nan nan nan nan nan nan nan nan nan nan nan nan nan nan nan nan nan nan
nan 48 nan nan 50 50 49 49 47 47 nan nan 45 45 45 nan nan nan nan nan nan nan nan nan nan nan nan nan nan nan nan nan nan nan nan nan nan nan nan nan nan nan nan nan nan nan nan nan nan nan nan nan nan nan nan nan nan nan nan nan nan nan nan nan nan nan nan nan nan nan nan nan nan nan nan nan nan nan nan nan nan nan nan nan nan
nan 48 49 49 49 50 50 50 48 47 nan nan nan 46 nan nan nan nan 44 44 42 nan nan nan nan nan nan nan nan nan nan nan nan nan nan nan nan nan nan nan nan nan nan nan nan nan nan nan nan nan nan nan nan nan nan nan nan nan nan nan nan nan nan nan nan nan nan nan nan nan nan nan nan nan nan nan nan nan nan nan nan nan nan nan nan
nan nan 48 49 51 50 50 48 47 nan nan nan 46 45 44 43 43 43 42 40 38 38 nan nan nan nan nan nan nan nan nan nan nan nan nan nan nan nan nan nan nan nan nan nan nan nan nan nan nan nan nan nan nan nan nan nan nan nan nan nan nan nan nan nan nan nan nan nan nan nan nan nan nan nan nan nan nan nan nan nan nan nan nan nan nan
47 50 nan 52 51 49 47 46 46 nan 45 46 45 45 44 44 43 42 nan nan nan nan nan nan nan nan nan nan nan nan nan nan nan nan nan nan nan nan nan nan nan nan nan nan nan nan nan nan nan nan nan nan nan nan nan nan nan nan nan nan nan nan nan nan nan nan nan nan nan nan nan nan nan nan nan nan nan nan nan nan nan nan nan nan nan
50 51 nan nan 49 48 46 45 45 45 45 45 45 44 43 42 41 nan nan 38 39 nan nan nan nan nan nan nan nan nan nan nan nan nan nan nan nan nan nan nan nan nan nan nan nan nan nan nan nan nan nan nan nan nan nan nan nan nan nan nan nan nan nan nan nan nan nan nan nan nan nan nan nan nan nan nan nan nan nan nan nan nan nan nan nan
50 50 nan nan 49 48 45 44 44 45 44 42 42 40 39 39 38 37 37 39 42 43 nan nan nan nan nan nan nan nan nan nan nan nan nan nan nan nan nan nan nan nan nan nan nan nan nan nan nan nan nan nan nan nan nan nan nan nan nan nan nan nan nan nan nan nan nan nan nan nan nan nan nan nan nan nan nan nan nan nan nan nan nan nan nan
50 50 nan 48 46 44 44 44 46 46 43 40 38 36 37 37 37 37 40 42 42 nan nan nan nan nan nan nan nan nan nan nan nan nan nan nan nan nan nan nan nan nan nan nan nan nan nan nan nan nan nan nan nan nan nan nan nan nan nan nan nan nan nan nan nan nan nan nan nan nan nan nan nan nan nan nan nan nan nan nan nan nan nan nan nan
52 49 45 41 39 40 42 43 43 43 41 38 36 35 36 37 38 40 41 nan nan nan nan nan nan nan nan nan nan nan nan nan nan nan nan nan nan nan nan nan nan nan nan nan nan nan nan nan nan nan nan nan nan nan nan nan nan nan nan nan nan nan nan nan nan nan nan nan nan nan nan nan nan nan nan nan nan nan nan nan nan nan nan nan nan
46 43 40 38 38 39 40 nan 39 37 35 35 35 35 37 39 40 40 38 37 nan nan nan nan nan nan nan nan nan nan nan nan nan nan nan nan nan nan nan nan nan nan nan nan nan nan nan nan nan nan nan nan nan nan nan nan nan nan nan nan nan nan nan nan nan nan nan nan nan nan nan nan nan nan nan nan nan nan nan nan nan nan nan nan nan
43 41 41 nan nan nan nan 37 36 34 33 32 33 35 nan nan nan nan nan nan nan nan nan nan nan nan nan nan nan nan nan nan nan nan nan nan nan nan nan nan nan nan nan nan nan nan nan nan nan nan nan nan nan nan nan nan nan nan nan nan nan nan nan nan nan nan nan nan nan nan nan nan nan nan nan nan nan nan nan nan nan nan nan nan nan
41 41 41 nan nan nan 37 38 38 36 nan nan nan nan nan nan nan nan nan nan nan nan nan nan nan nan nan nan nan nan nan nan nan nan nan nan nan nan nan nan nan nan nan nan nan nan nan nan nan nan nan nan nan nan nan nan nan nan nan nan nan nan nan nan nan nan nan nan nan nan nan nan nan nan nan nan nan nan nan nan nan nan nan nan nan
nan nan nan nan nan nan 39 nan nan nan nan nan nan nan nan nan nan nan nan nan nan nan nan nan nan nan nan nan nan nan nan nan nan nan nan nan nan nan nan nan nan nan nan nan nan nan nan nan nan nan nan nan nan nan nan nan nan nan nan nan nan nan nan nan nan nan nan nan nan nan nan nan nan nan nan nan nan nan nan nan nan nan nan nan nan
nan nan nan nan nan nan nan nan nan nan nan nan nan nan nan nan nan nan nan nan nan nan nan nan nan nan nan nan nan nan nan nan nan nan nan nan nan nan nan nan nan nan nan nan nan nan nan nan nan nan nan nan nan nan nan nan nan nan nan nan nan nan nan nan nan nan nan nan nan nan nan nan nan nan nan nan nan nan nan nan nan nan nan nan nan
nan nan nan nan nan nan nan nan nan nan nan nan nan nan nan nan nan nan nan nan nan nan nan nan nan nan nan nan nan nan nan nan nan nan nan nan nan nan nan nan nan nan nan nan nan nan nan nan nan nan nan nan nan nan nan nan nan nan nan nan nan nan nan nan nan nan nan nan nan nan nan nan nan nan nan nan nan nan nan nan nan nan nan nan nan
nan nan nan nan nan nan nan nan nan nan nan nan nan nan nan nan nan nan nan nan nan nan nan nan nan nan nan nan nan nan nan nan nan nan nan nan nan nan nan nan nan nan nan nan nan nan nan nan nan nan nan nan nan nan nan nan nan nan nan nan nan nan nan nan nan nan nan nan nan nan nan nan nan nan nan nan nan nan nan nan nan nan nan nan nan
nan nan nan nan nan nan nan nan nan nan nan nan nan nan nan nan nan nan nan nan nan nan nan nan nan nan nan nan nan nan nan nan nan nan nan nan nan nan nan nan nan nan nan nan nan nan nan nan nan nan nan nan nan nan nan nan nan nan nan nan nan nan nan nan nan nan nan nan nan nan nan nan nan nan nan nan nan nan nan nan nan nan nan nan nan
Wind_Direction
329 330 327 328 325 327 328 323 324 319 319 317 315 316 311 303 302 304 305 311 311 313 315 313 306 305 307 306 306 305 306 308 307 306 303 302 301 302 300 301 304 305 306 311 313 313 319 322 321 319 316 314 311 310 312 316 319 320 320 321 321 320 320 nan nan nan nan nan nan nan nan nan nan nan nan nan nan nan nan nan 278 274 nan nan nan
328 325 323 321 327 327 326 321 318 313 314 314 314 306 302 305 306 303 307 308 310 308 307 308 304 304 307 304 302 303 304 305 304 304 304 303 301 298 300 303 304 306 306 309 311 312 316 320 320 320 318 317 314 314 315 317 319 320 321 321 320 318 319 320 nan nan nan 304 nan nan nan nan nan nan nan 288 286 284 284 283 281 279 275 nan nan
327 320 320 321 326 325 322 318 314 311 310 306 308 309 315 314 307 307 306 307 305 300 300 306 304 301 301 300 301 301 302 302 299 299 303 303 301 298 299 302 304 305 306 307 309 312 316 316 315 313 311 315 316 316 316 318 318 319 321 319 319 318 319 321 nan nan nan nan nan nan nan nan nan 294 292 290 288 288 287 286 285 282 281 278 nan
326 323 322 326 327 324 321 311 306 301 304 305 311 310 311 311 305 304 307 307 305 299 297 300 303 303 300 298 299 298 297 297 295 294 299 302 300 296 294 297 301 304 304 303 307 313 315 312 310 308 309 313 316 317 317 318 318 318 319 317 317 319 318 317 317 nan nan nan nan 298 nan nan nan 291 290 289 288 289 288 286 285 285 283 281 277
331 326 327 330 329 325 318 302 296 306 317 313 313 308 303 302 300 302 302 304 304 301 296 295 300 304 301 299 298 295 292 292 293 292 293 298 300 295 290 291 297 303 303 302 305 310 311 313 311 309 310 314 317 320 320 321 318 316 316 315 316 317 315 314 313 312 310 nan nan nan nan 293 291 290 289 287 287 288 287 286 285 284 282 280 276
334 329 328 331 330 321 305 303 312 324 320 312 309 305 301 298 296 296 301 305 306 306 301 296 297 301 300 297 296 294 288 286 289 289 291 296 297 293 288 288 293 300 304 303 302 303 306 310 311 310 313 318 321 321 320 319 316 316 316 316 316 315 314 312 310 310 310 nan nan nan nan 290 288 288 287 287 287 286 285 284 283 280 274 271 272
333 332 331 332 322 309 307 319 331 334 326 318 312 312 310 305 303 nan nan nan nan nan 305 299 295 297 296 293 291 290 287 283 283 284 286 291 292 291 290 291 293 299 304 306 303 300 301 305 307 309 315 320 323 322 319 317 315 316 316 316 316 314 313 310 308 308 307 304 301 nan nan 292 289 287 286 287 289 288 284 279 274 268 268 267 263
331 328 326 322 310 311 323 333 337 333 321 309 310 315 311 305 307 311 nan nan nan nan nan 302 296 293 292 290 287 284 284 282 280 280 282 285 287 289 293 294 295 300 306 308 307 303 303 304 306 310 317 321 321 318 316 315 314 314 313 313 313 313 312 309 307 307 305 302 301 nan nan 292 291 291 289 289 287 286 283 276 268 264 263 264 265
327 324 319 313 313 320 324 329 328 327 312 300 300 303 302 301 307 310 311 nan nan nan nan nan 298 291 286 287 285 278 279 280 273 274 280 283 285 290 293 295 296 299 306 309 308 306 304 304 307 313 317 318 317 315 314 312 312 312 312 312 312 312 310 308 307 304 303 301 300 299 297 297 296 293 290 288 285 279 275 275 273 269 269 267 265
318 322 323 321 322 322 324 324 324 325 319 311 300 294 299 303 308 312 313 nan nan nan nan nan nan 290 283 285 284 274 272 271 269 282 286 282 284 286 288 293 295 298 304 307 307 307 307 307 310 316 314 315 317 319 nan nan nan 316 313 310 310 310 308 306 304 303 302 303 303 302 301 301 298 294 290 287 283 280 277 276 273 270 267 269 274
326 325 325 324 322 322 323 326 327 326 317 315 307 301 305 312 316 314 314 nan nan nan 305 nan nan nan 280 281 281 274 268 267 276 289 294 292 285 284 287 293 295 296 302 306 306 305 305 308 309 310 312 315 317 321 nan nan nan nan nan nan nan 309 305 303 301 302 304 306 306 307 307 305 300 293 290 283 281 277 278 276 272 269 269 265 258
332 329 327 318 319 324 325 325 327 326 316 313 310 318 324 322 318 318 316 314 nan nan nan nan nan nan 280 279 279 276 273 273 283 291 293 295 293 284 285 292 293 293 299 304 303 302 301 303 306 305 307 311 311 314 318 320 nan nan nan nan nan nan nan 306 303 305 308 310 312 311 308 306 299 294 288 281 278 280 280 279 280 278 nan 273 nan
329 327 324 317 318 321 323 323 320 312 312 317 325 326 327 326 322 317 315 307 302 nan 303 nan nan nan 286 291 289 284 283 284 288 291 292 296 nan nan 283 291 290 289 295 299 298 298 299 300 302 306 310 314 nan 315 313 312 316 319 nan nan nan nan nan nan nan nan 310 312 314 314 310 303 300 294 289 286 283 282 280 282 283 281 277 nan nan
326 323 318 316 316 317 319 317 317 322 325 326 326 327 328 328 323 314 307 303 300 298 299 294 287 289 303 311 301 294 296 296 295 294 292 294 290 282 283 290 289 292 298 298 297 300 303 307 309 312 313 313 312 313 312 312 311 310 309 305 300 300 304 311 nan nan nan 317 316 315 312 305 301 295 293 291 287 286 283 282 nan nan nan nan nan
320 319 317 316 314 316 318 319 320 321 322 323 324 325 328 326 315 309 309 308 306 302 nan nan nan nan nan nan nan 312 302 298 298 294 290 286 279 283 290 292 290 295 298 297 299 302 304 307 311 314 313 311 309 306 309 310 309 308 306 301 296 292 292 299 307 310 313 nan nan 317 309 303 300 297 296 nan nan nan nan nan nan nan nan nan nan
317 316 315 314 315 317 319 319 319 320 321 322 324 325 325 323 315 312 309 nan 297 296 nan nan nan 314 nan 313 313 312 297 292 291 294 291 282 280 287 295 291 288 294 298 300 304 305 307 310 314 314 312 311 304 nan nan nan nan nan 305 298 293 292 nan nan nan nan nan nan nan nan nan nan nan nan nan nan nan nan nan nan nan nan nan nan nan
312 312 313 313 313 313 316 317 319 320 320 322 325 324 323 319 319 315 312 309 308 314 327 nan nan 318 313 314 316 312 297 291 300 298 287 279 284 294 295 288 292 301 303 307 310 311 312 313 314 312 311 312 nan nan nan nan nan nan nan nan nan nan nan nan nan nan nan nan nan nan nan nan nan nan nan nan nan nan nan nan nan nan nan nan nan
308 309 310 309 309 309 311 314 317 319 318 321 324 320 316 317 318 314 311 315 324 333 nan nan 322 315 314 317 322 317 300 291 292 284 278 287 297 297 288 283 292 302 307 309 309 310 312 nan 313 313 313 313 nan nan nan nan nan nan nan nan nan nan nan nan nan nan nan nan nan nan nan nan nan nan nan nan nan nan nan nan nan nan nan nan nan
305 307 306 305 306 306 307 310 314 317 320 313 302 301 303 306 308 310 311 317 323 nan nan nan 320 315 316 322 323 314 291 281 285 284 289 299 303 295 284 283 294 305 308 310 310 312 312 nan nan nan nan nan nan nan nan nan nan nan nan nan nan nan nan nan nan nan nan nan nan nan nan nan nan nan nan nan nan nan nan nan nan nan nan nan nan
301 302 302 302 303 302 304 308 313 314 306 304 305 306 308 312 316 nan nan nan 313 314 314 315 318 319 318 322 319 305 278 267 272 288 298 303 305 293 287 292 302 306 309 310 310 312 313 nan nan nan nan nan nan nan nan nan nan nan nan nan nan nan nan nan nan nan nan nan nan nan nan nan nan nan nan nan nan nan nan nan nan nan nan nan nan
301 301 301 304 305 305 304 310 312 310 305 305 305 307 309 312 314 nan nan 311 311 314 316 318 320 317 315 316 311 294 290 296 291 285 292 299 301 301 293 296 299 301 305 308 309 309 310 nan nan nan nan nan nan nan nan nan nan nan nan nan nan nan nan nan nan nan nan nan nan nan nan nan nan nan nan nan nan nan nan nan nan nan nan nan nan
302 303 304 307 309 308 308 309 309 306 302 304 306 309 309 310 313 nan nan nan 314 316 317 317 317 316 320 322 311 289 287 290 276 268 281 290 299 307 303 300 296 298 302 305 306 nan nan nan nan nan nan nan nan nan nan nan nan nan nan nan nan nan nan nan nan nan nan nan nan nan nan nan nan nan nan nan nan nan nan nan nan nan nan nan nan
302 303 305 306 308 310 308 308 306 302 301 302 304 305 306 308 nan nan nan nan 315 317 317 316 319 323 323 319 307 289 276 270 273 281 288 291 299 nan nan nan nan 297 302 304 302 nan nan nan nan nan nan nan nan nan nan nan nan nan nan nan nan nan nan nan nan nan nan nan nan nan nan nan nan nan nan nan nan nan nan nan nan nan nan nan nan
302 302 303 306 307 307 307 306 302 299 298 300 302 304 305 308 309 311 313 313 313 314 314 317 317 319 322 320 301 283 271 270 280 288 297 302 nan nan nan nan nan nan nan nan nan nan nan nan nan nan nan nan nan nan nan nan nan nan nan nan nan nan nan nan nan nan nan nan nan nan nan nan nan nan nan nan nan nan nan nan nan nan nan nan nan
301 301 302 303 302 302 303 300 297 296 296 299 302 308 309 310 312 313 312 312 312 312 314 314 321 320 317 309 294 276 269 277 292 nan nan nan nan nan nan nan nan nan nan nan nan nan nan nan nan nan nan nan nan nan nan nan nan nan nan nan nan nan nan nan nan nan nan nan nan nan nan nan nan nan nan nan nan nan nan nan nan nan nan nan nan
301 301 299 298 297 298 299 300 297 297 299 302 304 nan nan nan nan 309 310 310 312 311 312 317 317 312 309 300 288 278 279 288 nan nan nan nan nan nan nan nan nan nan nan nan nan nan nan nan nan nan nan nan nan nan nan nan nan nan nan nan nan nan nan nan nan nan nan nan nan nan nan nan nan nan nan nan nan nan nan nan nan nan nan nan nan
304 303 300 297 296 297 299 298 297 297 299 nan nan nan nan 303 303 304 306 309 310 311 313 nan nan nan 306 293 284 281 284 nan nan nan nan nan nan nan nan nan nan nan nan nan nan nan nan nan nan nan nan nan nan nan nan nan nan nan nan nan nan nan nan nan nan nan nan nan nan nan nan nan nan nan nan nan nan nan nan nan nan nan nan nan nan
304 306 305 299 297 298 298 299 297 298 298 299 297 295 294 297 299 301 306 307 309 310 314 314 312 309 303 293 288 288 nan nan nan nan nan nan nan nan nan nan nan nan nan nan nan nan nan nan nan nan nan nan nan nan nan nan nan nan nan nan nan nan nan nan nan nan nan nan nan nan nan nan nan nan nan nan nan nan nan nan nan nan nan nan nan
303 304 301 297 295 296 298 299 295 295 296 293 284 284 288 294 297 298 292 295 301 307 310 310 309 307 305 301 298 297 297 301 302 nan nan nan nan nan nan nan nan nan nan nan nan nan nan nan nan nan nan nan nan nan nan nan nan nan nan nan nan nan nan nan nan nan nan nan nan nan nan nan nan nan nan nan nan nan nan nan nan nan nan nan nan
295 293 292 294 295 296 297 299 297 294 294 291 nan nan 280 281 284 296 300 nan nan nan nan 301 299 303 302 298 296 302 304 299 nan nan nan nan nan nan nan nan nan nan nan nan nan nan nan nan nan nan nan nan nan nan nan nan nan nan nan nan nan nan nan nan nan nan nan nan nan nan nan nan nan nan nan nan nan nan nan nan nan nan nan nan nan
286 287 289 292 295 295 295 296 299 297 296 nan nan 290 nan nan nan nan nan nan nan nan nan nan nan nan nan nan nan nan nan nan nan nan nan nan nan nan nan nan nan nan nan nan nan nan nan nan nan nan nan nan nan nan nan nan nan nan nan nan nan nan nan nan nan nan nan nan nan nan nan nan nan nan nan nan nan nan nan nan nan nan nan nan nan
287 289 290 291 292 294 295 297 300 301 297 296 nan nan nan nan nan nan nan nan nan nan nan nan nan nan nan nan nan nan nan nan nan nan nan nan nan nan nan nan nan nan nan nan nan nan nan nan nan nan nan nan nan nan nan nan nan nan nan nan nan nan nan nan nan nan nan nan nan nan nan nan nan nan nan nan nan nan nan nan nan nan nan nan nan
289 290 289 290 292 295 295 297 299 299 297 nan nan nan nan nan nan nan nan nan nan nan nan nan nan nan nan nan nan nan nan nan nan nan nan nan nan nan nan nan nan nan nan nan nan nan nan nan nan nan nan nan nan nan nan nan nan nan nan nan nan nan nan nan nan nan nan nan nan nan nan nan nan nan nan nan nan nan nan nan nan nan nan nan nan
287 288 289 290 291 293 295 297 298 297 nan nan nan nan nan nan 295 nan nan nan nan nan nan nan nan nan nan nan nan nan nan nan nan nan nan nan nan nan nan nan nan nan nan nan nan nan nan nan nan nan nan nan nan nan nan nan nan nan nan nan nan nan nan nan nan nan nan nan nan nan nan nan nan nan nan nan nan nan nan nan nan nan nan nan nan
282 281 286 289 290 292 294 295 295 nan nan nan nan nan nan 293 nan nan nan nan nan nan nan nan nan nan nan nan nan nan nan nan nan nan nan nan nan nan nan nan nan nan nan nan nan nan nan nan nan nan nan nan nan nan nan nan nan nan nan nan nan nan nan nan nan nan nan nan nan nan nan nan nan nan nan nan nan nan nan nan nan nan nan nan nan
nan 284 nan nan 288 290 292 293 293 293 nan nan 293 293 293 nan nan nan nan nan nan nan nan nan nan nan nan nan nan nan nan nan nan nan nan nan nan nan nan nan nan nan nan nan nan nan nan nan nan nan nan nan nan nan nan nan nan nan nan nan nan nan nan nan nan nan nan nan nan nan nan nan nan nan nan nan nan nan nan nan nan nan nan nan nan
nan 285 287 289 291 291 292 292 294 295 nan nan nan 297 nan nan nan nan 302 303 302 nan nan nan nan nan nan nan nan nan nan nan nan nan nan nan nan nan nan nan nan nan nan nan nan nan nan nan nan nan nan nan nan nan nan nan nan nan nan nan nan nan nan nan nan nan nan nan nan nan nan nan nan nan nan nan nan nan nan nan nan nan nan nan nan
nan nan 288 290 290 291 292 293 293 nan nan nan 297 297 297 297 300 302 304 304 302 300 nan nan nan nan nan nan nan nan nan nan nan nan nan nan nan nan nan nan nan nan nan nan nan nan nan nan nan nan nan nan nan nan nan nan nan nan nan nan nan nan nan nan nan nan nan nan nan nan nan nan nan nan nan nan nan nan nan nan nan nan nan nan nan
286 285 nan 287 290 292 294 294 293 nan 295 296 295 295 296 298 300 302 nan nan nan nan nan nan nan nan nan nan nan nan nan nan nan nan nan nan nan nan nan nan nan nan nan nan nan nan nan nan nan nan nan nan nan nan nan nan nan nan nan nan nan nan nan nan nan nan nan nan nan nan nan nan nan nan nan nan nan nan nan nan nan nan nan nan nan
285 285 nan nan 291 292 291 291 291 292 291 292 292 293 295 298 300 nan nan 300 303 nan nan nan nan nan nan nan nan nan nan nan nan nan nan nan nan nan nan nan nan nan nan nan nan nan nan nan nan nan nan nan nan nan nan nan nan nan nan nan nan nan nan nan nan nan nan nan nan nan nan nan nan nan nan nan nan nan nan nan nan nan nan nan nan
285 285 nan nan 290 291 291 291 291 290 289 291 291 293 294 297 296 296 299 305 307 306 nan nan nan nan nan nan nan nan nan nan nan nan nan nan nan nan nan nan nan nan nan nan nan nan nan nan nan nan nan nan nan nan nan nan nan nan nan nan nan nan nan nan nan nan nan nan nan nan nan nan nan nan nan nan nan nan nan nan nan nan nan nan nan
285 287 nan 291 293 293 291 289 287 286 287 288 288 288 291 294 294 295 301 306 305 nan nan nan nan nan nan nan nan nan nan nan nan nan nan nan nan nan nan nan nan nan nan nan nan nan nan nan nan nan nan nan nan nan nan nan nan nan nan nan nan nan nan nan nan nan nan nan nan nan nan nan nan nan nan nan nan nan nan nan nan nan nan nan nan
282 285 287 286 287 287 286 285 284 284 284 283 284 287 292 295 296 299 302 nan nan nan nan nan nan nan nan nan nan nan nan nan nan nan nan nan nan nan nan nan nan nan nan nan nan nan nan nan nan nan nan nan nan nan nan nan nan nan nan nan nan nan nan nan nan nan nan nan nan nan nan nan nan nan nan nan nan nan nan nan nan nan nan nan nan
280 278 276 277 282 284 282 nan 279 279 280 282 287 293 295 295 295 297 299 298 nan nan nan nan nan nan nan nan nan nan nan nan nan nan nan nan nan nan nan nan nan nan nan nan nan nan nan nan nan nan nan nan nan nan nan nan nan nan nan nan nan nan nan nan nan nan nan nan nan nan nan nan nan nan nan nan nan nan nan nan nan nan nan nan nan
278 277 277 nan nan nan nan 276 275 279 286 291 295 297 nan nan nan nan nan nan nan nan nan nan nan nan nan nan nan nan nan nan nan nan nan nan nan nan nan nan nan nan nan nan nan nan nan nan nan nan nan nan nan nan nan nan nan nan nan nan nan nan nan nan nan nan nan nan nan nan nan nan nan nan nan nan nan nan nan nan nan nan nan nan nan
275 275 275 nan nan nan 276 276 279 285 nan nan nan nan nan nan nan nan nan nan nan nan nan nan nan nan nan nan nan nan nan nan nan nan nan nan nan nan nan nan nan nan nan nan nan nan nan nan nan nan nan nan nan nan nan nan nan nan nan nan nan nan nan nan nan nan nan nan nan nan nan nan nan nan nan nan nan nan nan nan nan nan nan nan nan
nan nan nan nan nan nan 282 nan nan nan nan nan nan nan nan nan nan nan nan nan nan nan nan nan nan nan nan nan nan nan nan nan nan nan nan nan nan nan nan nan nan nan nan nan nan nan nan nan nan nan nan nan nan nan nan nan nan nan nan nan nan nan nan nan nan nan nan nan nan nan nan nan nan nan nan nan nan nan nan nan nan nan nan nan nan
nan nan nan nan nan nan nan nan nan nan nan nan nan nan nan nan nan nan nan nan nan nan nan nan nan nan nan nan nan nan nan nan nan nan nan nan nan nan nan nan nan nan nan nan nan nan nan nan nan nan nan nan nan nan nan nan nan nan nan nan nan nan nan nan nan nan nan nan nan nan nan nan nan nan nan nan nan nan nan nan nan nan nan nan nan
nan nan nan nan nan nan nan nan nan nan nan nan nan nan nan nan nan nan nan nan nan nan nan nan nan nan nan nan nan nan nan nan nan nan nan nan nan nan nan nan nan nan nan nan nan nan nan nan nan nan nan nan nan nan nan nan nan nan nan nan nan nan nan nan nan nan nan nan nan nan nan nan nan nan nan nan nan nan nan nan nan nan nan nan nan
nan nan nan nan nan nan nan nan nan nan nan nan nan nan nan nan nan nan nan nan nan nan nan nan nan nan nan nan nan nan nan nan nan nan nan nan nan nan nan nan nan nan nan nan nan nan nan nan nan nan nan nan nan nan nan nan nan nan nan nan nan nan nan nan nan nan nan nan nan nan nan nan nan nan nan nan nan nan nan nan nan nan nan nan nan
nan nan nan nan nan nan nan nan nan nan nan nan nan nan nan nan nan nan nan nan nan nan nan nan nan nan nan nan nan nan nan nan nan nan nan nan nan nan nan nan nan nan nan nan nan nan nan nan nan nan nan nan nan nan nan nan nan nan nan nan nan nan nan nan nan nan nan nan nan nan nan nan nan nan nan nan nan nan nan nan nan nan nan nan nan